Location: Blue Mountain Vista Observatory
(40.6992°N, 75.9422°W)
Time: 12:25:29
(UTC-04:00)

Daily predictions for brighter satellites

Satellite Brightness Start Highest point End
(mag) Time Altitude Azimuth Time Altitude Azimuth Time Altitude Azimuth
Meteor 2-16 Rocket 4.5 19:37:04 10° S 19:43:12 80° E 19:49:21 10° N
Cosmos 1437 Rocket 3.2 19:41:50 10° SSE 19:45:35 42° E 19:49:25 10° NNE
SJ-6B 2.7 19:42:52 10° SSE 19:46:34 65° ENE 19:50:17 10° N
H-2A R/B 4.2 19:42:31 10° SSW 19:46:48 27° SE 20:02:32 10° E
Cosmos 2098 4.2 19:44:54 10° S 19:48:20 64° E 19:51:21 10° NNE
Lacrosse 4 Rocket 1.3 19:44:39 10° SSW 19:48:38 59° ESE 19:52:38 10° NE
Resurs 1-3 4.3 19:48:24 10° SE 19:52:19 33° ENE 19:56:15 10° N
Cosmos 2058 Rocket 4.3 19:52:02 10° SSW 19:56:22 49° W 20:00:46 10° N
Cosmos 1844 Rocket 2.7 19:52:40 10° SSW 19:58:19 83° ESE 20:03:59 10° NNE
Cosmos 192 4.4 19:53:59 10° NNW 19:58:57 87° WSW 20:03:51 10° SSE
USA 215 3.9 19:53:26 10° ENE 19:59:15 33° SE 20:05:00 10° S
Spot 2 Rocket 3.8 19:54:42 10° SE 19:59:34 47° ENE 20:04:28 10° N
Cosmos 2150 Rocket 3.9 19:55:46 10° S 20:00:51 67° ESE 20:05:59 10° NNE
FengYun 1-2 T 4.2 20:01:40 10° SSE 20:07:13 77° ENE 20:12:50 10° N
Cosmos 2278 Rocket 2.6 20:02:20 10° S 20:07:36 41° ESE 20:12:53 10° NE
Cosmos 1833 Rocket 4.3 20:04:27 10° N 20:08:03 17° NE 20:10:56 12° E
Cosmos 1934 Rocket 3.9 20:05:39 10° S 20:11:43 65° E 20:17:45 10° NNE
Cosmos 1378 3.0 20:09:22 10° N 20:13:09 82° E 20:16:54 10° S
SAR-Lupe-4 4.5 20:10:59 12° SE 20:13:44 29° ENE 20:16:54 10° N
Cosmos 1898 Rocket 3.8 20:08:37 10° SSW 20:13:55 72° WNW 20:19:13 10° NNE
Cosmos 990 Rocket 3.9 20:09:47 10° S 20:14:59 68° ESE 20:20:13 10° NNE
Tiangong 1 0.8 20:12:41 10° WNW 20:15:38 80° NNE 20:17:22 22° E
Cosmos 1953 3.5 20:13:24 10° SE 20:16:35 22° E 20:19:47 10° NE
Envisat 4.0 20:14:18 14° ESE 20:17:35 26° ENE 20:21:46 10° N
Okean 3 Rocket 4.1 20:13:58 10° N 20:18:02 36° ENE 20:22:01 10° SE
FENGYUN 3A 3.8 20:12:51 10° S 20:18:16 79° WSW 20:23:42 10° NNW
H-2A R/B 2.7 20:18:20 10° SSE 20:22:12 85° ENE 20:26:09 10° N
Cosmos 1125 Rocket 4.4 20:18:23 10° SSE 20:22:37 26° E 20:26:52 10° NE
Meteor 1-24 Rocket 3.6 20:17:11 10° N 20:22:41 82° E 20:28:20 10° S
USA 186 1.8 20:24:57 30° ENE 20:24:57 30° ENE 20:26:53 10° N
Abrixas 4.2 20:23:21 10° NW 20:25:41 22° NNE 20:26:54 17° NE
Cosmos 1707 4.3 20:24:11 10° NNW 20:27:49 38° W 20:31:25 10° SSW
Cosmos 1821 Rocket 4.4 20:25:12 10° SSW 20:31:34 71° W 20:37:56 10° N
Geosat 3.9 20:27:28 10° NNE 20:32:32 80° ESE 20:37:33 10° SSW
SAR-Lupe-1 4.4 20:31:15 23° SE 20:33:07 44° ENE 20:36:33 10° N
ALOS 3.4 20:32:41 10° S 20:37:09 45° W 20:41:39 10° NNW
Cosmos 2082 Rocket 3.1 20:32:39 10° N 20:37:38 30° NE 20:39:45 24° E
Lacrosse 5 rocket 3.6 20:36:19 10° N 20:37:55 12° NNE 20:39:27 10° NE
GP-B 3.6 20:37:25 22° SE 20:39:46 38° E 20:43:53 10° NNE
Resurs 01 Rocket 2.1 20:36:21 10° S 20:40:42 61° WSW 20:45:06 10° NNW
Cosmos 1812 Rocket 4.4 20:36:27 10° SSW 20:40:46 53° W 20:45:06 10° N
CZ-3B DEB 3.1 20:29:09 10° SW 20:40:53 74° NW 20:46:03 10° NE
Meteor 1-4 Rocket 2.9 20:40:40 37° ESE 20:40:56 37° E 20:44:11 10° NNE
CZ-4B DEB 3.1 20:41:47 39° ENE 20:41:48 39° ENE 20:44:44 10° N
Cosmos 1766 3.6 20:38:01 10° SSW 20:41:52 65° W 20:45:44 10° N
Cosmos 1544 3.0 20:39:07 10° S 20:42:41 58° E 20:46:17 10° NNE
Cosmos 1818 4.1 20:37:57 10° NNW 20:43:07 41° NE 20:45:20 28° E
RESURS DK-1 2.3 20:39:22 10° NNW 20:43:31 89° W 20:46:08 22° SSE
ERS-1 Rocket 4.0 20:43:31 24° E 20:44:21 26° ENE 20:48:27 10° NNE
Cosmos 1937 Rocket 4.4 20:41:52 10° SW 20:46:57 51° WNW 20:52:07 10° N
SL-27 R/B 2.9 20:44:20 10° NNW 20:47:52 64° WSW 20:50:29 17° S
BREEZE-M DEB (TANK) 3.5 20:44:49 10° SSW 20:48:00 39° SE 20:56:58 10° ENE
Cosmos 2100 Rocket 4.5 20:44:06 15° SSE 20:48:42 37° E 20:54:26 10° NNE
Cosmos 1605 Rocket 4.0 20:43:11 10° S 20:49:25 88° E 20:55:48 10° N
Timation 1 Rocket 4.4 20:43:52 10° S 20:49:39 52° ESE 20:55:29 10° NE
Meteor 1-29 2.9 20:47:39 10° NNE 20:51:06 58° E 20:52:31 31° SSE
COSMOS 2487 4.0 20:48:38 10° N 20:50:47 22° NE 20:50:47 22° NE
Lacrosse 5 1.9 20:47:41 10° SW 20:52:46 84° NW 20:57:52 10° NE
SeaSat 1 4.5 20:53:12 10° SSW 20:57:16 26° WSW 21:01:23 10° NW
Cosmos 1766 Rocket 3.9 20:53:04 10° N 20:57:23 45° ENE 20:57:56 43° E
Cosmos 1076 Rocket 3.4 20:54:17 10° N 20:58:32 65° E 20:59:48 42° SE
Cosmos 1269 Rocket 4.3 20:53:41 10° N 20:58:47 46° ENE 21:00:06 38° ESE
Delta 2 Rocket 4.3 20:55:16 10° WSW 20:59:22 34° SSW 21:00:11 31° S
Cosmos 2098 Rocket 4.3 20:53:43 10° S 21:00:38 75° E 21:08:15 10° N
OE (NEXTSAT) 4.2 20:58:34 10° WSW 21:02:10 86° SSE 21:02:26 75° E
Meteor 1-21 Rocket 4.2 20:56:43 10° N 21:02:31 67° E 21:05:51 27° SSE
Spot 1 4.4 21:00:12 15° S 21:03:55 72° WSW 21:08:45 10° NNW
Cosmos 1802 Rocket 4.4 21:05:09 37° ESE 21:06:02 39° E 21:11:40 10° NNE
Cosmos 468 4.4 21:03:01 10° NNW 21:08:16 82° ENE 21:10:22 37° SSE
Cosmos 2344 4.2 21:05:41 10° SW 21:13:14 60° NW 21:21:52 10° NNE
Cosmos 2061 Rocket 4.2 21:11:25 34° SE 21:13:54 51° E 21:20:06 10° NNE
Helios 1B rocket 3.1 21:11:30 10° N 21:15:33 55° WNW 21:19:35 10° SSW
Helios 1A 3.8 21:14:06 19° SSW 21:16:50 48° W 21:20:54 10° NNW
Cosmos 1867 3.5 21:12:20 10° SSW 21:17:41 61° ESE 21:23:05 10° NE
Timation 2 Rocket 4.1 21:12:20 10° NNW 21:18:33 53° ENE 21:19:44 47° E
Cosmos 1805 4.3 21:14:54 10° SSW 21:18:39 46° W 21:22:25 10° N
Cosmos 1674 3.1 21:15:39 10° N 21:18:34 51° N 21:18:34 51° N
Cosmos-2242 3.6 21:22:00 44° NNE 21:22:00 44° NNE 21:25:01 10° NNE
Lacrosse 4 Rocket 4.5 21:25:33 10° W 21:27:44 14° NW 21:29:54 10° NNW
Cosmos 1340 Rocket 4.1 21:24:51 10° N 21:27:12 32° NNE 21:27:12 32° NNE
Cosmos 1470 4.5 21:33:41 26° N 21:33:41 26° N 21:35:29 10° N
Cosmos 372 Rocket 3.8 21:29:12 10° SSW 21:34:18 89° ESE 21:39:29 10° NNE
USA 215 3.5 21:36:01 10° NE 21:42:31 69° NW 21:48:58 10° WSW
H-2A R/B 3.7 21:45:55 22° NNE 21:45:55 22° NNE 21:48:24 10° N
Cosmos 1459 Rocket 4.0 21:45:22 28° SSW 21:48:52 80° W 21:55:06 10° N
Cosmos 158 Rocket 4.0 21:44:03 10° NNW 21:49:00 75° W 21:49:00 75° W
Cosmos 1939 Rocket 4.1 21:49:27 40° W 21:49:27 40° W 21:53:18 10° NNW
NOAA 11 4.5 21:51:35 55° NNE 21:51:35 55° NNE 21:56:06 10° N
Cosmos 2173 Rocket 4.0 21:48:08 35° SSW 21:50:55 79° W 21:57:12 10° N
Cosmos 2278 Rocket 4.1 21:46:51 10° WSW 21:51:46 29° NW 21:56:43 10° N
Cosmos 1833 Rocket 2.6 21:47:01 10° NNW 21:52:39 79° WSW 21:52:39 79° WSW
CZ-3 Stage 3 3.6 21:28:51 10° W 21:53:18 46° SSW 21:54:42 43° S
Envisat 4.3 21:54:30 27° SW 21:56:25 37° W 22:01:07 10° NNW
USA 267 3.4 22:14:41 63° NNE 22:14:41 63° NNE 22:20:56 10° NW
Lacrosse 5 rocket 4.0 22:14:16 10° NW 22:15:09 16° NNW 22:15:09 16° NNW
Cosmos 2082 Rocket 3.2 22:16:32 10° NW 22:21:38 40° W 22:21:38 40° W
Cosmos 2016 Rocket 4.3 22:22:04 62° W 22:22:07 62° W 22:28:14 10° N
ERS-1 Rocket 4.3 22:23:31 36° W 22:23:31 36° W 22:27:36 10° NNW
SPOT 5 4.5 22:37:51 36° NW 22:37:51 36° NW 22:41:12 10° NNW
Lacrosse 5 4.0 22:32:32 10° WNW 22:36:25 22° NNW 22:37:28 20° N
CZ-3B DEB 4.3 22:49:41 10° WNW 22:53:48 17° NNW 22:54:17 17° NNW
H-2A R/B 4.5 23:26:33 19° NW 23:26:33 19° NW 23:28:10 10° NNW
